Probability
0 0 0 0 0 0 0 0 0 0 0 0 0 0 0 0 0 0 0 0 0 0 0 0 0 0 0 0 0 0 0 0 0 0 0 0 0 0 0 0 0 0 0 0
0 0 0 0 0 0 0 0 0 0 0 0 0 0 0 0 0 0 0 0 0 0 0 0 0 0 0 0 0 0 0 0 0 0 0 0 0 0 0 0 0 1 1 1
0 0 0 0 0 0 0 0 0 0 0 0 0 0 0 0 0 0 0 0 0 0 0 0 0 0 0 0 0 0 0 0 0 0 0 0 0 0 0 0 0 1 2 2
0 0 0 0 0 0 0 0 0 0 0 0 0 0 0 0 0 0 0 0 0 0 0 0 0 0 0 0 0 0 0 0 0 0 0 0 0 0 0 0 0 1 1 1
0 0 0 0 0 0 0 0 0 0 0 0 0 0 0 0 0 0 0 0 0 0 0 0 0 0 0 0 0 0 0 0 0 0 0 0 0 0 0 0 0 0 0 0
0 0 0 0 0 0 0 0 0 0 0 0 0 0 0 0 0 0 0 0 0 0 0 0 0 0 0 0 0 0 0 0 0 0 0 0 0 0 0 0 0 0 0 0
0 0 0 0 0 0 0 0 0 0 0 0 0 0 0 0 0 0 0 0 0 0 0 0 0 0 0 0 0 0 0 0 0 0 0 0 0 0 0 1 1 1 0 0
0 0 0 0 0 0 0 0 0 0 0 0 0 0 0 0 0 0 0 0 0 0 0 0 0 0 0 0 0 0 0 0 0 0 0 0 0 0 0 1 1 1 0 0
0 0 0 0 0 0 0 0 0 0 0 0 0 0 0 0 0 0 0 0 0 0 0 0 0 0 0 0 0 0 0 0 0 0 0 0 0 0 0 0 1 1 1 0
0 0 0 0 0 0 0 0 0 0 0 0 0 0 0 0 0 0 0 0 0 0 0 0 0 0 0 0 0 0 0 0 0 0 0 0 0 0 0 0 1 2 1 1
0 0 0 0 0 0 0 0 0 0 0 0 0 0 0 0 0 0 0 0 0 0 0 0 0 0 0 0 0 0 0 0 0 0 0 0 0 0 0 0 1 1 1 0
0 0 0 0 0 0 0 0 0 0 0 0 0 0 0 0 0 0 0 0 0 0 0 0 0 0 0 0 0 0 0 0 0 0 0 0 0 0 0 0 0 0 0 0
0 0 0 0 0 0 0 0 0 0 0 0 0 0 0 0 0 0 0 0 0 0 0 0 0 0 0 0 0 0 0 0 0 0 0 0 0 0 0 0 0 0 0 0
0 0 0 0 0 0 0 0 0 0 0 0 0 0 0 0 0 0 0 0 0 0 0 0 0 0 0 0 0 0 0 0 0 0 0 0 0 0 0 0 0 0 0 0
0 0 0 0 0 0 0 0 0 0 0 0 0 0 0 0 0 0 0 0 0 0 0 0 0 0 0 0 0 0 0 0 0 0 0 0 0 0 0 0 0 0 0 0
0 0 0 0 0 0 0 0 0 0 0 0 0 0 0 0 0 0 0 0 0 0 0 0 0 0 0 0 0 0 0 0 0 0 0 0 0 0 0 0 0 0 0 0
0 0 0 0 0 0 0 0 0 0 0 0 0 0 0 0 0 0 0 0 0 0 0 0 0 0 0 0 0 0 0 0 0 0 0 0 0 0 0 0 0 0 0 0
0 0 0 0 0 0 0 0 0 0 0 0 0 0 0 0 0 0 0 0 0 0 0 0 0 0 0 0 0 0 0 0 0 0 0 0 0 0 0 0 0 0 0 0
0 0 0 0 0 0 0 0 0 0 0 0 0 0 0 0 0 0 0 0 0 0 0 0 0 0 0 0 0 0 0 0 0 0 0 0 0 0 0 0 0 0 0 0
0 0 0 0 0 0 0 0 0 0 0 0 0 0 0 0 0 0 0 0 0 0 0 0 0 0 0 0 0 0 0 0 0 0 0 0 0 0 0 0 0 0 0 0
0 0 0 0 0 0 0 0 0 0 0 0 0 0 0 0 0 0 0 0 0 0 0 0 0 0 0 0 0 0 0 0 0 0 0 0 0 0 0 0 0 0 0 0
0 0 0 0 0 0 0 0 0 0 0 0 0 0 0 0 0 0 0 0 0 0 0 0 0 0 0 0 0 0 0 0 0 0 0 0 0 0 0 0 0 0 0 0
0 0 0 0 0 0 0 0 0 0 0 0 0 0 0 0 0 0 0 0 0 0 0 0 0 0 0 0 0 0 0 0 0 0 0 0 0 0 0 0 0 0 0 0
0 0 0 0 0 0 0 0 0 0 0 0 0 0 0 0 0 0 0 0 0 0 0 0 0 0 0 0 0 0 0 0 0 0 0 0 0 0 0 0 0 0 0 0
0 0 0 0 0 0 0 0 0 0 0 0 0 0 0 0 0 0 0 0 0 0 0 0 0 0 0 0 0 0 0 0 0 0 0 0 0 0 0 0 0 0 0 0
0 0 0 0 0 0 0 0 0 0 0 0 0 0 0 0 0 0 0 0 0 0 0 0 0 0 0 0 0 0 0 0 0 0 0 0 0 0 0 0 0 0 0 0
0 0 0 0 0 0 0 0 0 0 0 0 0 0 0 0 0 0 0 0 0 0 0 0 0 0 0 0 0 0 0 0 0 0 0 0 0 0 0 0 0 0 0 0
Wind_Speed
3 1 2 5 7 7 8 8 5 4 11 14 14 12 11 10 9 8 7 6 6 5 4 4 4 3 4 3 3 3 3 2 3 4 4 4 4 4 4 5 5 4 4 4
5 5 5 7 8 9 9 7 5 2 4 9 12 12 11 10 10 8 7 6 5 4 4 4 3 3 3 4 3 3 3 3 3 4 4 4 4 4 4 4 5 5 5 4
7 6 6 9 12 12 10 8 6 5 5 10 12 12 12 10 9 9 8 6 5 4 4 3 3 3 4 3 3 4 4 4 4 4 4 5 6 5 5 5 5 5 5 5
7 6 9 2 3 4 6 6 5 3 8 10 10 8 8 8 8 8 8 6 5 4 3 2 3 3 3 3 4 4 5 5 5 4 4 5 5 5 5 4 5 5 5 5
6 8 7 4 6 6 5 5 5 6 10 11 11 9 7 8 8 7 7 6 4 3 3 3 3 3 3 3 4 5 5 4 4 4 4 5 5 5 5 5 5 5 5 5
6 7 6 3 9 6 4 4 6 9 12 13 12 8 7 9 9 8 7 5 4 3 3 3 3 3 3 3 4 5 4 4 4 4 4 4 4 4 5 5 5 6 6 6
9 8 3 7 9 7 5 3 7 9 12 13 10 5 9 12 9 8 6 5 4 3 3 2 1 1 1 3 4 3 3 3 3 4 4 3 3 4 5 5 5 6 6 6
8 9 5 10 7 5 4 5 6 7 9 9 7 6 10 11 9 8 6 5 4 3 3 2 1 1 1 2 2 2 1 2 3 4 4 4 3 4 4 5 5 5 6 6
4 2 6 6 5 5 5 5 5 6 7 7 8 9 10 9 8 7 7 5 4 4 3 3 2 1 0 1 0 1 2 2 3 4 3 2 3 4 4 4 3 4 4 5
1 6 7 6 5 4 3 3 4 5 6 7 7 7 8 8 7 6 6 5 4 4 3 3 3 3 2 1 1 1 2 3 3 3 3 3 3 3 3 3 3 4 4 5
4 3 4 5 5 5 3 3 3 4 5 6 7 7 6 6 6 5 5 4 4 4 3 3 3 3 2 1 1 2 3 3 3 3 3 3 3 3 3 3 3 4 4 4
4 3 3 5 5 5 4 4 4 4 4 5 5 6 6 6 5 5 5 4 4 4 4 3 3 2 1 1 2 2 2 3 2 2 2 3 3 4 6 7 9 10 11 9
2 4 3 3 4 4 3 3 3 3 4 4 4 5 5 5 5 5 5 5 4 4 3 3 3 2 2 2 2 2 3 3 2 2 3 3 4 4 5 6 9 11 12 13
1 1 1 1 2 2 3 3 3 3 3 4 4 4 4 4 5 5 5 4 4 3 3 4 3 3 3 2 3 3 4 4 3 3 3 3 4 5 5 5 6 5 7 11
3 4 3 2 2 3 3 3 4 4 4 3 3 4 4 4 5 5 5 4 3 4 4 4 4 3 3 3 3 4 3 3 2 2 3 4 5 5 5 6 6 5 5 6
5 5 4 4 4 4 5 5 5 4 4 4 4 4 4 4 4 4 4 4 4 5 5 5 4 4 3 3 3 3 3 6 5 4 4 5 5 5 5 5 5 5 5 5
6 6 6 6 5 5 5 5 4 4 4 4 4 4 4 4 4 4 4 4 5 5 5 5 5 4 3 3 4 3 3 4 6 5 5 5 5 5 5 5 6 6 6 7
6 6 6 6 5 5 5 4 4 4 4 4 4 4 4 5 5 5 5 5 5 5 5 5 4 3 3 4 4 3 3 3 4 4 4 5 5 5 6 6 7 7 6 7
4 3 3 3 3 3 3 4 4 4 4 4 4 5 5 5 5 5 5 6 6 6 5 5 5 4 4 5 4 3 4 4 5 5 5 7 7 6 6 6 6 7 6 6
2 1 2 2 2 2 2 2 3 3 3 4 4 4 5 5 5 5 5 6 5 4 4 3 4 4 4 5 5 3 4 5 5 6 5 6 6 6 6 6 6 7 6 6
1 1 1 1 1 2 2 3 3 3 3 3 4 4 5 5 5 5 4 4 4 3 3 4 3 3 3 3 4 3 4 5 6 6 6 6 6 6 6 7 7 6 6 6
1 1 1 2 2 3 3 3 3 4 3 3 4 4 4 4 5 5 5 4 3 3 3 2 2 2 2 3 3 4 5 6 6 6 6 6 6 6 7 7 6 6 6 6
2 2 3 3 4 4 4 4 4 4 3 3 3 3 4 4 3 3 4 3 2 3 3 2 3 3 4 4 4 5 6 7 7 7 6 6 6 6 6 7 6 6 6 6
4 4 4 4 5 5 5 4 3 2 2 3 3 3 4 3 3 3 3 3 4 4 3 3 5 6 6 4 5 6 7 7 6 6 6 6 5 6 6 6 6 6 6 8
5 5 5 5 5 4 4 4 3 3 3 3 3 4 3 3 3 3 3 3 4 4 3 4 8 8 6 5 6 6 6 6 7 6 5 6 6 6 6 6 6 7 6 7
6 5 4 5 5 3 3 3 3 3 3 3 3 3 3 2 3 3 2 3 5 5 4 3 4 6 5 6 6 6 6 6 7 6 7 6 7 7 6 6 8 7 7 8
6 6 4 4 4 4 4 3 3 4 3 3 3 3 3 3 3 3 4 3 3 4 4 4 4 4 5 5 6 6 6 6 6 6 6 6 5 5 6 8 7 7 7 8
Wind_Direction
237 260 207 206 201 211 243 266 284 149 154 169 164 157 151 146 141 134 126 116 107 101 93 85 70 53 63 63 47 47 51 38 4 348 355 347 340 334 325 317 312 302 293 291
251 220 234 244 237 228 232 250 263 186 145 147 151 151 151 151 148 142 132 123 115 107 100 92 87 73 70 61 53 57 59 43 26 2 355 348 337 331 320 310 310 314 308 300
266 222 221 238 228 223 225 229 228 215 153 142 148 155 159 154 153 145 135 128 121 107 87 79 75 65 66 67 61 58 56 41 28 11 358 350 343 337 326 321 315 303 299 298
265 240 239 215 98 184 208 213 209 178 136 147 147 139 137 142 147 143 138 133 124 112 101 81 71 68 64 72 69 61 51 33 18 9 358 347 341 332 324 316 308 298 289 285
256 257 251 182 159 163 181 201 189 167 145 143 135 132 146 150 144 137 134 131 126 124 116 86 56 37 39 52 58 58 46 27 15 6 353 345 338 332 327 323 313 306 301 288
255 252 260 134 134 139 171 203 180 162 152 149 148 165 174 156 145 137 134 133 129 121 99 80 52 27 23 44 57 56 39 16 3 350 340 337 335 330 323 317 313 313 309 303
249 256 255 115 126 142 188 186 154 156 155 160 171 166 144 145 144 139 137 138 138 133 119 103 58 9 26 46 53 56 36 2 344 335 324 324 333 324 317 318 320 318 314 312
221 238 223 138 155 169 116 103 126 138 150 159 152 122 131 141 143 146 146 150 152 150 146 143 128 12 40 57 48 39 355 316 313 311 315 335 335 323 322 324 321 322 321 321
203 152 94 130 116 96 106 124 124 131 140 143 141 139 142 145 149 155 159 164 166 165 172 171 156 157 266 109 39 302 298 295 290 293 297 314 321 320 321 326 330 327 328 325
205 143 146 139 118 112 99 107 107 123 139 147 150 149 151 155 160 165 170 172 173 180 193 190 175 182 202 197 231 280 298 299 296 305 320 323 315 308 315 319 319 317 318 316
250 191 154 167 165 155 144 135 127 134 150 155 158 162 165 167 167 170 174 173 182 192 197 205 199 199 199 194 223 273 280 287 300 306 305 304 306 302 301 281 271 276 281 287
236 229 202 175 168 162 165 175 166 168 169 166 171 171 173 173 171 175 182 184 191 198 204 215 220 216 204 204 219 256 273 283 284 291 298 299 297 298 288 278 280 274 265 265
295 21 31 81 138 159 177 194 191 188 185 180 175 174 176 172 173 183 191 196 202 204 211 224 232 229 221 217 228 246 261 268 272 281 285 283 285 288 293 291 278 275 274 272
45 41 257 193 170 172 195 204 200 200 195 187 180 177 180 179 182 192 199 203 204 207 215 229 237 239 227 229 236 244 254 258 259 257 264 277 283 281 279 282 287 282 274 272
236 237 242 221 201 200 199 201 203 203 197 192 185 187 190 192 196 201 203 203 203 214 224 234 237 235 229 238 245 248 252 248 249 257 264 269 271 272 273 276 277 281 284 285
235 231 231 232 224 216 209 210 210 208 203 200 198 201 205 205 205 206 205 202 208 223 230 235 237 234 228 229 241 244 243 249 250 247 252 259 262 269 274 277 281 282 281 282
227 222 220 224 222 217 214 213 215 215 213 211 208 209 210 211 212 214 216 214 221 229 228 233 238 233 229 230 236 239 241 252 259 258 254 259 266 270 273 275 277 277 275 277
236 230 224 218 218 219 219 220 222 225 226 223 213 212 216 220 224 224 225 227 232 235 236 238 238 234 236 238 237 238 245 253 255 258 261 262 265 268 271 272 273 276 275 276
228 217 218 218 218 223 225 222 224 229 233 230 223 222 227 232 234 234 233 232 234 238 236 230 223 233 244 243 242 229 242 255 261 263 263 269 271 267 266 267 269 271 274 275
188 181 197 208 213 226 238 239 237 235 237 239 234 233 236 239 241 243 243 242 236 232 231 224 230 241 249 251 243 241 249 257 263 265 265 264 265 268 269 271 273 275 276 276
147 166 198 217 238 249 257 256 250 249 251 250 245 240 240 242 244 247 247 249 245 235 232 226 229 236 243 257 248 251 257 261 263 265 265 265 267 269 271 272 273 275 278 279
210 237 239 245 258 263 266 269 267 261 254 250 253 253 251 248 247 248 243 236 234 223 218 222 230 237 258 277 267 266 266 267 266 265 264 263 264 268 271 274 275 278 280 281
278 279 272 264 264 268 268 267 266 262 255 253 254 254 255 256 249 245 253 237 224 211 217 229 241 252 264 267 265 265 267 267 268 268 268 266 268 270 273 277 277 280 282 282
287 282 279 278 277 272 267 267 268 262 256 260 253 251 255 256 252 243 244 235 229 226 230 231 239 250 257 259 261 264 266 267 267 269 272 274 276 277 278 281 283 282 281 286
283 279 275 274 271 269 268 265 264 258 250 249 252 252 253 247 247 251 254 256 241 229 236 245 253 253 250 256 259 262 264 265 269 276 276 276 275 276 276 277 278 279 280 281
282 277 272 269 270 267 265 259 254 253 254 252 249 250 254 252 250 246 247 251 251 249 244 245 249 250 251 256 260 264 267 273 278 275 271 272 275 278 280 282 286 284 282 280
277 275 268 263 262 258 258 252 250 250 249 250 252 249 250 255 256 253 253 253 255 253 247 245 248 254 260 266 270 272 272 271 271 272 273 274 275 278 282 285 283 282 281 280